Weather History for KCMA - November, 2011

Change the Weather History Date:

Wednesday, November 9, 2011

  Actual Average Record
Temperature  
Mean Temperature 62 °F 60 °F  
Max Temperature 79 °F 71 °F 94 °F (1956)
Min Temperature 45 °F 49 °F 40 °F (1961)
Degree Days  
Heating Degree Days 3 6  
Month to date heating degree days 61 47  
Since 1 July heating degree days 99 170  
Cooling Degree Days 0 1  
Month to date cooling degree days 10 9  
Year to date cooling degree days 487 325  
Growing Degree Days 14 (Base 50)    
Moisture  
Dew Point 25 °F    
Average Humidity 31    
Maximum Humidity 51    
Minimum Humidity 11    
Precipitation  
Precipitation 0.00 in 0.04 in 1.18 in (1994)
Month to date precipitation 0.28 0.43  
Year to date precipitation 11.49 12.28  
Since 1 July precipitation 1.26 1.30  
Sea Level Pressure  
Sea Level Pressure 30.21 in    
Wind  
Wind Speed 14 mph (ENE)    
Max Wind Speed 26 mph    
Max Gust Speed 33 mph    
Visibility 10 miles    
Events      
T = Trace of Precipitation, MM = Missing Value Source: NWS Daily Summary

Daily Weather History Graph

Daily Weather History Graph

Search for Another Location

Airport or City:

Trip Planner

Search our weather history database for the weather conditions in past years. The results will help you decide how hot, cold, wet, or windy it might be!

Date:

Astronomy

Nov. 09, 2011 Rise Set
Actual Time 6:23 AM PST 4:56 PM PST
Civil Twilight 5:57 AM PST 5:22 PM PST
Nautical Twilight 5:27 AM PST 5:52 PM PST
Astronomical Twilight 4:57 AM PST 6:22 PM PST
Moon 4:11 PM PST (11/9) 5:23 AM PST (11/9)
Length of Visible Light 11h 25m
Length of Day
10h 33m
Waxing Gibbous, 99% of the Moon is Illuminated
Nov 9
Waxing Gibbous
Nov 10
Full
Nov 18
Last Quarter
Nov 24
New
Dec 2
First Quarter

Hourly Weather History & Observations

Time (PST) Temp. Dew Point Humidity Pressure Visibility Wind Dir Wind Speed Gust Speed Precip Events Conditions
12:55 AM 53.1 °F 30.9 °F 43% 30.25 in 10.0 mi East 6.9 mph - N/A   Clear
1:55 AM 55.0 °F 28.0 °F 35% 30.25 in 10.0 mi East 6.9 mph - N/A   Clear
2:55 AM 59.0 °F 25.0 °F 27% 30.24 in 10.0 mi East 10.4 mph - N/A   Clear
3:55 AM 48.9 °F 28.0 °F 44% 30.24 in 10.0 mi NE 8.1 mph - N/A   Clear
4:55 AM 55.0 °F 25.0 °F 31% 30.23 in 10.0 mi NE 8.1 mph - N/A   Clear
5:55 AM 55.0 °F 26.1 °F 33% 30.24 in 10.0 mi East 9.2 mph - N/A   Clear
6:55 AM 62.1 °F 23.0 °F 22% 30.25 in 10.0 mi East 18.4 mph - N/A   Clear
7:55 AM 66.0 °F 21.9 °F 19% 30.26 in 10.0 mi East 19.6 mph 25.3 mph N/A   Clear
8:55 AM 70.0 °F 21.0 °F 16% 30.26 in 9.0 mi East 24.2 mph 31.1 mph N/A   Clear
9:55 AM 73.9 °F 21.0 °F 14% 30.26 in 10.0 mi East 18.4 mph - N/A   Clear
10:55 AM 75.9 °F 19.0 °F 12% 30.24 in 10.0 mi East 20.7 mph 33.4 mph N/A   Clear
11:55 AM 78.1 °F 19.0 °F 11% 30.21 in 10.0 mi ENE 17.3 mph 27.6 mph N/A   Clear
12:55 PM 79.0 °F 19.0 °F 11% 30.18 in 10.0 mi ENE 19.6 mph 25.3 mph N/A   Clear
1:55 PM 79.0 °F 19.0 °F 11% 30.16 in 10.0 mi ENE 16.1 mph 25.3 mph N/A   Clear
2:55 PM 78.1 °F 19.9 °F 11% 30.15 in 10.0 mi NE 11.5 mph - N/A   Clear
3:55 PM 75.0 °F 19.0 °F 12% 30.15 in 10.0 mi ENE 11.5 mph 18.4 mph N/A   Clear
4:29 PM 66.2 °F 42.8 °F 43% 30.13 in 10.0 mi Calm Calm - N/A   Clear
4:55 PM 63.0 °F 42.1 °F 46% 30.16 in 10.0 mi West 8.1 mph - N/A   Clear
5:55 PM 60.1 °F 37.9 °F 44% 30.19 in 10.0 mi WNW 4.6 mph - N/A   Clear
6:55 PM 57.0 °F 39.0 °F 51% 30.18 in 10.0 mi NE 4.6 mph - N/A   Clear
7:55 PM 68.0 °F 19.9 °F 16% 30.18 in 10.0 mi East 13.8 mph - N/A   Clear
8:55 PM 68.0 °F 17.1 °F 14% 30.18 in 10.0 mi East 18.4 mph - N/A   Clear
9:55 PM 68.0 °F 18.0 °F 15% 30.19 in 10.0 mi East 18.4 mph - N/A   Clear
10:55 PM 68.0 °F 19.9 °F 16% 30.19 in 10.0 mi East 16.1 mph - N/A   Clear
11:55 PM 66.9 °F 21.0 °F 17% 30.19 in 10.0 mi East 16.1 mph - N/A   Clear